SWA3297 KBWI-KPBI

Flight info

Callsign SWA3297
Flight time 2h 12m
Altitude 38000
Route CONLE5 SCOOB PAACK Q97 KENLL CPTAN3
Aircraft B737/M-SADE2E3GIJ4RWZ/LB1D1

Departure

Time 2026-05-08 18:53
Airport Baltimore/Washington International Thurgood Marshall Airport (KBWI)

Arrival

Time 2026-05-08 21:06
Airport Palm Beach International Airport (KPBI)
Time Latitude Longitude Altitude Speed Heading
2026-05-08 18:20 39.17733 -76.66947 154 ft 0 kts 234°
2026-05-08 18:41 39.17741 -76.66932 155 ft 4 kts 232°
2026-05-08 18:41 39.17759 -76.66906 154 ft 4 kts 218°
2026-05-08 18:41 39.17780 -76.66892 154 ft 4 kts 168°
2026-05-08 18:42 39.17788 -76.66895 154 ft 0 kts 144°
2026-05-08 18:47 39.17780 -76.66888 155 ft 3 kts 144°
2026-05-08 18:47 39.17746 -76.66856 155 ft 9 kts 144°
2026-05-08 18:47 39.17690 -76.66804 156 ft 10 kts 145°
2026-05-08 18:47 39.17629 -76.66776 155 ft 10 kts 181°
2026-05-08 18:48 39.17562 -76.66782 154 ft 9 kts 189°
2026-05-08 18:48 39.17510 -76.66828 154 ft 9 kts 212°
2026-05-08 18:48 39.17462 -76.66795 153 ft 9 kts 107°
2026-05-08 18:48 39.17457 -76.66701 153 ft 12 kts 94°
2026-05-08 18:49 39.17450 -76.66585 153 ft 14 kts 94°
2026-05-08 18:49 39.17457 -76.66500 153 ft 15 kts 57°
2026-05-08 18:49 39.17527 -76.66417 152 ft 12 kts 65°
2026-05-08 18:49 39.17496 -76.66317 148 ft 13 kts 122°
2026-05-08 18:50 39.17458 -76.66214 148 ft 13 kts 101°
2026-05-08 18:50 39.17450 -76.66101 147 ft 12 kts 94°
2026-05-08 18:50 39.17444 -76.65991 146 ft 12 kts 93°
2026-05-08 18:50 39.17438 -76.65883 144 ft 13 kts 94°
2026-05-08 18:51 39.17430 -76.65747 140 ft 18 kts 94°
2026-05-08 18:51 39.17422 -76.65595 141 ft 12 kts 94°
2026-05-08 18:51 39.17388 -76.65525 140 ft 6 kts 165°
2026-05-08 18:51 39.17380 -76.65524 140 ft 0 kts 174°
2026-05-08 18:52 39.17369 -76.65524 140 ft 4 kts 179°
2026-05-08 18:52 39.17309 -76.65537 139 ft 12 kts 211°
2026-05-08 18:52 39.17285 -76.65637 140 ft 13 kts 275°
2026-05-08 18:52 39.17300 -76.65881 143 ft 56 kts 274°
2026-05-08 18:53 39.17344 -76.66661 151 ft 115 kts 274°
2026-05-08 18:53 39.17426 -76.67882 323 ft 148 kts 275°
2026-05-08 18:53 39.17517 -76.69170 1057 ft 148 kts 275°
2026-05-08 18:53 39.17611 -76.70561 1636 ft 167 kts 274°
2026-05-08 18:54 39.17701 -76.72177 1931 ft 196 kts 274°
2026-05-08 18:54 39.17480 -76.73961 2460 ft 209 kts 245°
2026-05-08 18:54 39.16563 -76.75426 3275 ft 216 kts 218°
2026-05-08 18:54 39.15125 -76.76089 4142 ft 229 kts 186°
2026-05-08 18:55 39.12124 -76.74272 5372 ft 270 kts 144°
2026-05-08 18:55 39.10650 -76.72650 5923 ft 285 kts 143°
2026-05-08 18:55 39.09129 -76.70966 6635 ft 291 kts 144°
2026-05-08 18:56 39.07575 -76.69284 6982 ft 291 kts 144°
2026-05-08 18:56 39.06010 -76.67618 7388 ft 296 kts 144°
2026-05-08 18:56 39.04411 -76.65932 8301 ft 299 kts 144°
2026-05-08 18:56 39.02892 -76.64072 9259 ft 305 kts 134°
2026-05-08 18:57 39.01519 -76.61980 10182 ft 309 kts 131°
2026-05-08 18:57 39.00112 -76.59758 10638 ft 332 kts 131°
2026-05-08 18:57 38.98572 -76.57367 10853 ft 361 kts 131°
2026-05-08 18:57 38.96890 -76.54812 11060 ft 387 kts 132°
2026-05-08 18:58 38.95070 -76.52204 11400 ft 404 kts 140°
2026-05-08 18:58 38.92683 -76.50288 11987 ft 406 kts 164°
2026-05-08 18:58 38.89940 -76.49554 12804 ft 398 kts 183°
2026-05-08 18:58 38.87214 -76.49902 13606 ft 392 kts 199°
2026-05-08 18:59 38.84544 -76.50684 14047 ft 395 kts 202°
2026-05-08 18:59 38.81977 -76.51860 14614 ft 396 kts 210°
2026-05-08 18:59 38.79433 -76.53216 15528 ft 394 kts 210°
2026-05-08 18:59 38.76914 -76.54539 16617 ft 389 kts 210°
2026-05-08 19:00 38.74380 -76.55825 17396 ft 394 kts 209°
2026-05-08 19:00 38.71805 -76.57100 18076 ft 400 kts 209°
2026-05-08 19:00 38.69153 -76.58302 18728 ft 411 kts 202°
2026-05-08 19:00 38.66241 -76.58693 19393 ft 427 kts 190°
2026-05-08 19:01 38.63257 -76.58780 20041 ft 431 kts 190°
2026-05-08 19:01 38.60248 -76.58859 20629 ft 435 kts 190°
2026-05-08 19:01 38.57204 -76.58948 21180 ft 439 kts 191°
2026-05-08 19:01 38.54179 -76.59051 21723 ft 442 kts 191°
2026-05-08 19:02 38.51094 -76.59167 22266 ft 446 kts 191°
2026-05-08 19:02 38.47972 -76.59294 22814 ft 449 kts 192°
2026-05-08 19:02 38.44838 -76.59426 23309 ft 452 kts 192°
2026-05-08 19:02 38.41717 -76.59553 23192 ft 441 kts 192°
2026-05-08 19:03 38.38833 -76.60173 23131 ft 398 kts 212°
2026-05-08 19:03 38.36604 -76.61989 23168 ft 372 kts 233°
2026-05-08 19:03 38.34643 -76.64251 23233 ft 397 kts 223°
2026-05-08 19:03 38.32029 -76.65790 23421 ft 432 kts 205°
2026-05-08 19:04 38.28992 -76.66428 23833 ft 451 kts 195°
2026-05-08 19:04 38.25819 -76.66596 24298 ft 460 kts 190°
2026-05-08 19:04 38.22637 -76.66565 24732 ft 465 kts 189°
2026-05-08 19:04 38.19386 -76.66484 25117 ft 469 kts 189°
2026-05-08 19:05 38.16109 -76.66425 25500 ft 471 kts 190°
2026-05-08 19:05 38.12826 -76.66404 25828 ft 473 kts 191°
2026-05-08 19:05 38.09529 -76.66396 26260 ft 475 kts 190°
2026-05-08 19:05 38.06204 -76.66274 26640 ft 481 kts 188°
2026-05-08 19:06 38.02843 -76.66055 26949 ft 486 kts 187°
2026-05-08 19:06 37.99443 -76.65794 27280 ft 489 kts 187°
2026-05-08 19:06 37.96034 -76.65527 27617 ft 491 kts 187°
2026-05-08 19:06 37.92612 -76.65273 27929 ft 494 kts 188°
2026-05-08 19:07 37.89208 -76.65031 28239 ft 495 kts 188°
2026-05-08 19:07 37.85729 -76.64794 28792 ft 493 kts 188°
2026-05-08 19:07 37.82362 -76.64560 29428 ft 488 kts 188°
2026-05-08 19:07 37.78970 -76.64328 29819 ft 490 kts 189°
2026-05-08 19:08 37.75559 -76.64105 30226 ft 490 kts 189°
2026-05-08 19:08 37.72150 -76.63882 30628 ft 489 kts 189°
2026-05-08 19:08 37.68748 -76.63658 31095 ft 487 kts 189°
2026-05-08 19:08 37.65371 -76.63434 31549 ft 485 kts 189°
2026-05-08 19:09 37.62004 -76.63232 32012 ft 479 kts 192°
2026-05-08 19:09 37.58746 -76.63440 32348 ft 462 kts 201°
2026-05-08 19:09 37.55690 -76.64228 32638 ft 445 kts 210°
2026-05-08 19:09 37.52747 -76.65388 33087 ft 441 kts 211°
2026-05-08 19:10 37.49838 -76.66548 33567 ft 437 kts 211°
2026-05-08 19:10 37.46938 -76.67700 34010 ft 435 kts 211°
2026-05-08 19:10 37.44054 -76.68837 34326 ft 435 kts 211°
2026-05-08 19:10 37.41162 -76.69966 34567 ft 434 kts 211°
2026-05-08 19:11 37.38282 -76.71079 34920 ft 432 kts 211°
2026-05-08 19:11 37.35415 -76.72180 35225 ft 431 kts 211°
2026-05-08 19:11 37.32552 -76.73279 35481 ft 430 kts 212°
2026-05-08 19:11 37.29683 -76.74380 35762 ft 430 kts 212°
2026-05-08 19:12 37.26817 -76.75477 36085 ft 428 kts 212°
2026-05-08 19:12 37.23977 -76.76562 36358 ft 427 kts 212°
2026-05-08 19:12 37.21133 -76.77650 36585 ft 427 kts 212°
2026-05-08 19:12 37.18292 -76.78737 36795 ft 426 kts 212°
2026-05-08 19:13 37.15461 -76.79819 37076 ft 424 kts 212°
2026-05-08 19:13 37.12635 -76.80898 37338 ft 424 kts 212°
2026-05-08 19:13 37.09837 -76.81964 37585 ft 424 kts 212°
2026-05-08 19:13 37.07022 -76.83035 37852 ft 423 kts 212°
2026-05-08 19:14 37.04203 -76.84108 38063 ft 423 kts 212°
2026-05-08 19:14 36.98525 -76.86273 38061 ft 425 kts 212°
2026-05-08 19:15 36.92902 -76.88398 38064 ft 420 kts 212°
2026-05-08 19:15 36.87321 -76.90510 38065 ft 417 kts 212°
2026-05-08 19:16 36.81796 -76.92602 38074 ft 417 kts 212°
2026-05-08 19:16 36.76243 -76.94703 38075 ft 417 kts 212°
2026-05-08 19:17 36.70680 -76.96802 38069 ft 418 kts 213°
2026-05-08 19:17 36.65117 -76.98898 38080 ft 418 kts 213°
2026-05-08 19:18 36.59546 -77.00995 38075 ft 419 kts 213°
2026-05-08 19:18 36.53997 -77.03079 38080 ft 418 kts 213°
2026-05-08 19:19 36.48421 -77.05166 38077 ft 417 kts 214°
2026-05-08 19:19 36.42863 -77.07247 38084 ft 416 kts 214°
2026-05-08 19:20 36.37312 -77.09322 38078 ft 416 kts 214°
2026-05-08 19:20 36.31771 -77.11391 38084 ft 415 kts 214°
2026-05-08 19:21 36.26229 -77.13456 38076 ft 415 kts 214°
2026-05-08 19:21 36.20712 -77.15511 38084 ft 415 kts 214°
2026-05-08 19:22 36.15173 -77.17570 38080 ft 415 kts 214°
2026-05-08 19:22 36.09674 -77.19611 38078 ft 415 kts 214°
2026-05-08 19:23 36.04127 -77.21667 38027 ft 415 kts 214°
2026-05-08 19:23 35.98602 -77.23710 38071 ft 414 kts 214°
2026-05-08 19:24 35.93283 -77.26046 38083 ft 392 kts 223°
2026-05-08 19:24 35.90976 -77.27636 38082 ft 379 kts 229°
2026-05-08 19:24 35.88905 -77.29535 38092 ft 368 kts 233°
2026-05-08 19:25 35.84882 -77.33461 38077 ft 369 kts 233°
2026-05-08 19:25 35.80839 -77.37383 38071 ft 370 kts 233°
2026-05-08 19:26 35.76781 -77.41299 38069 ft 371 kts 233°
2026-05-08 19:26 35.72704 -77.45222 38075 ft 372 kts 233°
2026-05-08 19:27 35.68616 -77.49150 38063 ft 373 kts 233°
2026-05-08 19:27 35.64524 -77.53076 38070 ft 373 kts 233°
2026-05-08 19:28 35.60427 -77.57004 38044 ft 374 kts 233°
2026-05-08 19:28 35.56351 -77.60902 38060 ft 373 kts 233°
2026-05-08 19:29 35.52259 -77.64811 38080 ft 372 kts 233°
2026-05-08 19:29 35.48159 -77.68721 38087 ft 372 kts 233°
2026-05-08 19:30 35.44087 -77.72600 38081 ft 373 kts 233°
2026-05-08 19:30 35.39992 -77.76496 38079 ft 372 kts 233°
2026-05-08 19:31 35.35892 -77.80391 38089 ft 372 kts 233°
2026-05-08 19:31 35.31792 -77.84283 38103 ft 372 kts 233°
2026-05-08 19:32 35.27716 -77.88149 38102 ft 373 kts 233°
2026-05-08 19:32 35.23609 -77.92038 38108 ft 373 kts 232°
2026-05-08 19:33 35.19499 -77.95925 38110 ft 374 kts 232°
2026-05-08 19:33 35.15404 -77.99791 38023 ft 373 kts 232°
2026-05-08 19:34 35.11311 -78.03646 38060 ft 370 kts 232°
2026-05-08 19:34 35.07231 -78.07488 38071 ft 369 kts 232°
2026-05-08 19:35 35.03165 -78.11315 38075 ft 369 kts 232°
2026-05-08 19:35 34.99778 -78.14498 38072 ft 369 kts 232°
2026-05-08 19:36 34.95048 -78.18936 38069 ft 369 kts 232°
2026-05-08 19:36 34.91641 -78.22128 38018 ft 368 kts 232°
2026-05-08 19:37 34.87614 -78.25894 38057 ft 367 kts 232°
2026-05-08 19:37 34.83572 -78.29674 38067 ft 366 kts 232°
2026-05-08 19:38 34.79529 -78.33449 38068 ft 366 kts 232°
2026-05-08 19:38 34.75483 -78.37222 38061 ft 366 kts 232°
2026-05-08 19:39 34.71455 -78.40974 38063 ft 366 kts 232°
2026-05-08 19:39 34.67417 -78.44730 38058 ft 365 kts 232°
2026-05-08 19:40 34.63372 -78.48489 38072 ft 366 kts 232°
2026-05-08 19:40 34.59341 -78.52231 38074 ft 367 kts 232°
2026-05-08 19:41 34.55266 -78.56005 38077 ft 368 kts 232°
2026-05-08 19:41 34.51193 -78.59774 38072 ft 368 kts 232°
2026-05-08 19:42 34.47140 -78.63520 38067 ft 368 kts 232°
2026-05-08 19:42 34.43057 -78.67291 38076 ft 369 kts 232°
2026-05-08 19:43 34.38925 -78.71057 38098 ft 374 kts 230°
2026-05-08 19:43 34.34601 -78.74651 38078 ft 377 kts 229°
2026-05-08 19:44 34.30284 -78.78204 38069 ft 377 kts 229°
2026-05-08 19:44 34.25949 -78.81800 38083 ft 377 kts 229°
2026-05-08 19:45 34.21622 -78.85400 37998 ft 377 kts 229°
2026-05-08 19:45 34.17321 -78.88976 38058 ft 378 kts 229°
2026-05-08 19:46 34.12964 -78.92603 38071 ft 380 kts 229°
2026-05-08 19:46 34.06399 -78.98052 38067 ft 382 kts 229°
2026-05-08 19:47 34.02016 -79.01684 38076 ft 383 kts 229°
2026-05-08 19:47 33.97646 -79.05301 38034 ft 383 kts 229°
2026-05-08 19:48 33.93248 -79.08936 38058 ft 384 kts 228°
2026-05-08 19:48 33.88859 -79.12574 38072 ft 386 kts 228°
2026-05-08 19:49 33.84419 -79.16230 38067 ft 386 kts 227°
2026-05-08 19:49 33.79967 -79.19890 38058 ft 388 kts 227°
2026-05-08 19:50 33.75514 -79.23551 38058 ft 388 kts 227°
2026-05-08 19:50 33.71093 -79.27187 38082 ft 387 kts 227°
2026-05-08 19:51 33.66618 -79.30875 38066 ft 390 kts 227°
2026-05-08 19:51 33.62174 -79.34638 38082 ft 390 kts 228°
2026-05-08 19:52 33.57766 -79.38398 38079 ft 392 kts 228°
2026-05-08 19:52 33.53302 -79.42189 38080 ft 393 kts 227°
2026-05-08 19:53 33.48828 -79.45980 38034 ft 393 kts 227°
2026-05-08 19:53 33.44377 -79.49750 38062 ft 394 kts 227°
2026-05-08 19:54 33.39904 -79.53528 38073 ft 391 kts 227°
2026-05-08 19:54 33.35457 -79.57287 38075 ft 391 kts 227°
2026-05-08 19:55 33.30990 -79.61052 38071 ft 394 kts 226°
2026-05-08 19:55 33.26497 -79.64835 38067 ft 395 kts 226°
2026-05-08 19:56 33.21976 -79.68639 38061 ft 396 kts 226°
2026-05-08 19:56 33.17476 -79.72402 38061 ft 397 kts 226°
2026-05-08 19:57 33.12948 -79.76196 38065 ft 395 kts 226°
2026-05-08 19:57 33.08436 -79.79975 38072 ft 397 kts 226°
2026-05-08 19:58 33.03907 -79.83777 38063 ft 398 kts 226°
2026-05-08 19:58 32.99410 -79.87530 38066 ft 397 kts 226°
2026-05-08 19:59 32.94884 -79.91302 38060 ft 397 kts 226°
2026-05-08 19:59 32.90361 -79.95070 38071 ft 397 kts 226°
2026-05-08 20:00 32.85831 -79.98842 38064 ft 399 kts 225°
2026-05-08 20:00 32.81259 -80.02640 38065 ft 399 kts 226°
2026-05-08 20:01 32.76722 -80.06392 38070 ft 396 kts 225°
2026-05-08 20:01 32.72237 -80.10112 38056 ft 395 kts 226°
2026-05-08 20:02 32.67723 -80.13860 38058 ft 394 kts 226°
2026-05-08 20:02 32.63222 -80.17584 38070 ft 394 kts 225°
2026-05-08 20:03 32.58705 -80.21315 38067 ft 395 kts 225°
2026-05-08 20:03 32.54212 -80.25021 38065 ft 395 kts 225°
2026-05-08 20:04 32.49505 -80.28509 38058 ft 403 kts 219°
2026-05-08 20:04 32.44540 -80.31626 38070 ft 403 kts 219°
2026-05-08 20:05 32.39608 -80.34721 38059 ft 402 kts 219°
2026-05-08 20:05 32.34671 -80.37826 38057 ft 400 kts 219°
2026-05-08 20:06 32.29753 -80.40923 38069 ft 400 kts 219°
2026-05-08 20:06 32.24830 -80.44029 38025 ft 400 kts 219°
2026-05-08 20:07 32.19939 -80.47110 38049 ft 401 kts 219°
2026-05-08 20:07 32.15004 -80.50214 38053 ft 401 kts 219°
2026-05-08 20:08 32.10090 -80.53301 38055 ft 402 kts 219°
2026-05-08 20:08 32.05150 -80.56398 38054 ft 401 kts 218°
2026-05-08 20:09 32.00220 -80.59488 38046 ft 401 kts 218°
2026-05-08 20:09 31.95290 -80.62572 38045 ft 401 kts 218°
2026-05-08 20:10 31.90365 -80.65652 38052 ft 400 kts 218°
2026-05-08 20:10 31.85443 -80.68724 38048 ft 401 kts 218°
2026-05-08 20:11 31.80541 -80.71782 38044 ft 401 kts 218°
2026-05-08 20:11 31.75602 -80.74857 38044 ft 401 kts 218°
2026-05-08 20:12 31.70666 -80.77927 38041 ft 401 kts 218°
2026-05-08 20:12 31.65717 -80.81002 38043 ft 402 kts 218°
2026-05-08 20:13 31.60793 -80.84057 38040 ft 403 kts 218°
2026-05-08 20:13 31.55832 -80.87131 38041 ft 403 kts 218°
2026-05-08 20:14 31.50866 -80.90204 38039 ft 403 kts 218°
2026-05-08 20:14 31.45893 -80.93280 38020 ft 404 kts 218°
2026-05-08 20:15 31.40924 -80.96350 38031 ft 404 kts 218°
2026-05-08 20:15 31.35967 -80.99407 38043 ft 405 kts 218°
2026-05-08 20:16 31.30959 -81.02493 38038 ft 406 kts 218°
2026-05-08 20:16 31.25747 -81.05157 38042 ft 422 kts 207°
2026-05-08 20:17 31.19828 -81.06333 37998 ft 444 kts 194°
2026-05-08 20:17 31.13621 -81.06454 38040 ft 447 kts 193°
2026-05-08 20:18 31.07391 -81.06510 38032 ft 447 kts 193°
2026-05-08 20:18 31.01205 -81.06606 38033 ft 446 kts 193°
2026-05-08 20:19 30.94995 -81.06731 38033 ft 446 kts 193°
2026-05-08 20:19 30.88780 -81.06863 38036 ft 446 kts 193°
2026-05-08 20:20 30.82602 -81.06992 38036 ft 446 kts 193°
2026-05-08 20:20 30.76390 -81.07119 38028 ft 447 kts 193°
2026-05-08 20:21 30.70162 -81.07247 38023 ft 446 kts 193°
2026-05-08 20:21 30.63982 -81.07373 37982 ft 446 kts 193°
2026-05-08 20:22 30.57791 -81.07614 38021 ft 443 kts 194°
2026-05-08 20:22 30.52662 -81.07953 38034 ft 444 kts 195°
2026-05-08 20:23 30.45438 -81.08430 38024 ft 445 kts 194°
2026-05-08 20:23 30.39273 -81.08814 38043 ft 449 kts 194°
2026-05-08 20:24 30.32995 -81.09195 38008 ft 452 kts 194°
2026-05-08 20:24 30.27786 -81.09501 38016 ft 449 kts 194°
2026-05-08 20:25 30.21565 -81.09869 38015 ft 446 kts 194°
2026-05-08 20:25 30.15381 -81.10238 38018 ft 444 kts 194°
2026-05-08 20:26 30.09210 -81.10609 37976 ft 444 kts 194°
2026-05-08 20:26 30.03045 -81.10980 38012 ft 443 kts 194°
2026-05-08 20:27 29.96870 -81.11349 38027 ft 445 kts 194°
2026-05-08 20:27 29.90659 -81.11719 38028 ft 447 kts 194°
2026-05-08 20:28 29.84469 -81.12087 38013 ft 449 kts 194°
2026-05-08 20:28 29.78196 -81.12358 38004 ft 453 kts 191°
2026-05-08 20:29 29.71889 -81.12336 38030 ft 456 kts 190°
2026-05-08 20:29 29.65576 -81.12324 38020 ft 456 kts 191°
2026-05-08 20:30 29.59234 -81.12355 38023 ft 456 kts 190°
2026-05-08 20:30 29.56026 -81.11934 37999 ft 478 kts 173°
2026-05-08 20:30 29.52845 -81.10685 38008 ft 485 kts 170°
2026-05-08 20:31 29.46498 -81.07929 38004 ft 487 kts 168°
2026-05-08 20:31 29.40189 -81.05239 37988 ft 485 kts 169°
2026-05-08 20:32 29.33824 -81.02593 38006 ft 487 kts 170°
2026-05-08 20:32 29.27453 -80.99965 38002 ft 490 kts 169°
2026-05-08 20:33 29.21054 -80.97318 37969 ft 484 kts 169°
2026-05-08 20:33 29.14699 -80.94710 37990 ft 486 kts 169°
2026-05-08 20:34 29.08317 -80.92076 37998 ft 488 kts 169°
2026-05-08 20:35 28.98735 -80.88141 37990 ft 490 kts 169°
2026-05-08 20:35 28.92297 -80.85501 37959 ft 490 kts 169°
2026-05-08 20:36 28.85886 -80.82880 37983 ft 490 kts 169°
2026-05-08 20:36 28.79470 -80.80262 37978 ft 489 kts 169°
2026-05-08 20:37 28.73049 -80.77643 37966 ft 490 kts 169°
2026-05-08 20:37 28.66671 -80.75044 37969 ft 489 kts 169°
2026-05-08 20:38 28.60263 -80.72438 37956 ft 489 kts 168°
2026-05-08 20:38 28.53850 -80.69834 37960 ft 489 kts 168°
2026-05-08 20:39 28.47424 -80.67226 38002 ft 490 kts 168°
2026-05-08 20:39 28.44205 -80.65922 37823 ft 493 kts 168°
2026-05-08 20:39 28.40963 -80.64610 37551 ft 492 kts 168°
2026-05-08 20:39 28.37787 -80.63322 37295 ft 490 kts 168°
2026-05-08 20:40 28.34580 -80.62024 36588 ft 490 kts 168°
2026-05-08 20:40 28.31371 -80.60726 35886 ft 487 kts 168°
2026-05-08 20:40 28.28176 -80.59436 35080 ft 488 kts 168°
2026-05-08 20:40 28.24962 -80.58140 34231 ft 490 kts 168°
2026-05-08 20:41 28.21730 -80.56839 33232 ft 492 kts 167°
2026-05-08 20:41 28.18501 -80.55538 32245 ft 492 kts 167°
2026-05-08 20:41 28.15312 -80.54253 31269 ft 493 kts 167°
2026-05-08 20:41 28.12078 -80.52950 30239 ft 494 kts 167°
2026-05-08 20:42 28.08832 -80.51643 28963 ft 496 kts 167°
2026-05-08 20:42 28.05581 -80.50336 27668 ft 496 kts 167°
2026-05-08 20:42 28.02321 -80.49025 26430 ft 497 kts 166°
2026-05-08 20:42 27.99153 -80.47744 26365 ft 472 kts 166°
2026-05-08 20:43 27.96103 -80.46513 26141 ft 455 kts 167°
2026-05-08 20:43 27.93179 -80.45338 25950 ft 438 kts 167°
2026-05-08 20:43 27.90341 -80.44201 25544 ft 428 kts 167°
2026-05-08 20:43 27.87541 -80.43082 24956 ft 425 kts 167°
2026-05-08 20:44 27.84795 -80.41984 24356 ft 422 kts 167°
2026-05-08 20:44 27.82024 -80.40875 23750 ft 421 kts 167°
2026-05-08 20:44 27.79271 -80.39773 23055 ft 419 kts 167°
2026-05-08 20:44 27.76529 -80.38675 22408 ft 415 kts 166°
2026-05-08 20:45 27.73823 -80.37591 21788 ft 410 kts 166°
2026-05-08 20:45 27.72043 -80.36878 21356 ft 408 kts 166°
2026-05-08 20:45 27.68520 -80.35470 20584 ft 401 kts 166°
2026-05-08 20:45 27.65902 -80.34413 19989 ft 398 kts 164°
2026-05-08 20:46 27.63349 -80.33173 19393 ft 398 kts 160°
2026-05-08 20:46 27.60861 -80.31825 18784 ft 395 kts 159°
2026-05-08 20:46 27.58400 -80.30467 18165 ft 393 kts 159°
2026-05-08 20:46 27.55949 -80.29131 17502 ft 389 kts 159°
2026-05-08 20:47 27.53511 -80.27827 16888 ft 385 kts 159°
2026-05-08 20:47 27.51134 -80.26571 16295 ft 380 kts 159°
2026-05-08 20:47 27.48747 -80.25314 15707 ft 376 kts 159°
2026-05-08 20:47 27.46385 -80.24072 15125 ft 373 kts 158°
2026-05-08 20:48 27.44044 -80.22840 14528 ft 370 kts 158°
2026-05-08 20:48 27.41735 -80.21625 13931 ft 361 kts 158°
2026-05-08 20:48 27.39492 -80.20444 13335 ft 349 kts 158°
2026-05-08 20:48 27.37318 -80.19297 12759 ft 341 kts 158°
2026-05-08 20:49 27.35185 -80.18177 12189 ft 334 kts 158°
2026-05-08 20:49 27.33088 -80.17076 11664 ft 331 kts 158°
2026-05-08 20:49 27.31022 -80.15991 11148 ft 332 kts 158°
2026-05-08 20:49 27.28965 -80.14911 10987 ft 319 kts 158°
2026-05-08 20:50 27.26992 -80.13873 10825 ft 305 kts 158°
2026-05-08 20:50 27.25103 -80.12889 10584 ft 296 kts 159°
2026-05-08 20:50 27.23227 -80.11971 10267 ft 292 kts 160°
2026-05-08 20:50 27.21363 -80.11077 9874 ft 290 kts 160°
2026-05-08 20:51 27.19507 -80.10186 9422 ft 290 kts 160°
2026-05-08 20:51 27.17657 -80.09293 8999 ft 288 kts 159°
2026-05-08 20:51 27.15817 -80.08404 8588 ft 286 kts 159°
2026-05-08 20:51 27.13995 -80.07524 8172 ft 285 kts 159°
2026-05-08 20:52 27.12179 -80.06635 7748 ft 284 kts 158°
2026-05-08 20:52 27.10400 -80.05753 7347 ft 283 kts 158°
2026-05-08 20:52 27.08603 -80.04862 6968 ft 281 kts 158°
2026-05-08 20:52 27.06810 -80.03973 6545 ft 281 kts 158°
2026-05-08 20:53 27.05021 -80.03087 6117 ft 281 kts 157°
2026-05-08 20:53 27.03224 -80.02198 5723 ft 281 kts 158°
2026-05-08 20:53 27.01436 -80.01312 5320 ft 281 kts 158°
2026-05-08 20:53 26.99647 -80.00428 4932 ft 280 kts 158°
2026-05-08 20:54 26.97886 -79.99558 4527 ft 280 kts 158°
2026-05-08 20:54 26.96027 -79.98949 4112 ft 278 kts 179°
2026-05-08 20:54 26.94171 -79.99333 4035 ft 271 kts 204°
2026-05-08 20:54 26.92575 -80.00426 3992 ft 269 kts 219°
2026-05-08 20:55 26.91105 -80.01716 3974 ft 267 kts 220°
2026-05-08 20:55 26.89649 -80.03007 3980 ft 264 kts 220°
2026-05-08 20:55 26.88241 -80.04236 3970 ft 248 kts 219°
2026-05-08 20:55 26.86918 -80.05379 3975 ft 232 kts 220°
2026-05-08 20:56 26.85676 -80.06449 3967 ft 219 kts 220°
2026-05-08 20:56 26.84504 -80.07459 3977 ft 210 kts 219°
2026-05-08 20:56 26.83320 -80.08491 4012 ft 220 kts 220°
2026-05-08 20:56 26.82108 -80.09549 4000 ft 224 kts 220°
2026-05-08 20:57 26.80979 -80.10734 3976 ft 223 kts 240°
2026-05-08 20:57 26.80506 -80.12353 3992 ft 218 kts 264°
2026-05-08 20:57 26.80388 -80.14042 4007 ft 218 kts 266°
2026-05-08 20:57 26.80278 -80.15732 3994 ft 218 kts 266°
2026-05-08 20:58 26.80160 -80.17446 3997 ft 224 kts 265°
2026-05-08 20:58 26.80043 -80.19163 4003 ft 223 kts 265°
2026-05-08 20:58 26.79904 -80.20901 3993 ft 225 kts 262°
2026-05-08 20:58 26.79321 -80.22498 3848 ft 227 kts 228°
2026-05-08 20:59 26.78215 -80.23747 3743 ft 226 kts 226°
2026-05-08 20:59 26.77139 -80.25020 3620 ft 222 kts 227°
2026-05-08 20:59 26.76127 -80.26262 3521 ft 209 kts 227°
2026-05-08 20:59 26.75183 -80.27436 3417 ft 197 kts 227°
2026-05-08 21:00 26.74301 -80.28539 3291 ft 185 kts 227°
2026-05-08 21:00 26.73461 -80.29594 3192 ft 182 kts 226°
2026-05-08 21:00 26.72453 -80.30433 3098 ft 179 kts 198°
2026-05-08 21:00 26.71257 -80.30600 3028 ft 177 kts 169°
2026-05-08 21:01 26.70129 -80.30066 2905 ft 179 kts 139°
2026-05-08 21:01 26.69389 -80.28975 2738 ft 177 kts 110°
2026-05-08 21:01 26.69130 -80.27671 2636 ft 169 kts 97°
2026-05-08 21:01 26.69020 -80.26353 2479 ft 169 kts 95°
2026-05-08 21:02 26.68949 -80.25072 2351 ft 162 kts 94°
2026-05-08 21:02 26.68894 -80.23841 2254 ft 152 kts 95°
2026-05-08 21:02 26.68841 -80.22637 2083 ft 158 kts 93°
2026-05-08 21:02 26.68787 -80.21425 1891 ft 153 kts 93°
2026-05-08 21:03 26.68735 -80.20279 1685 ft 140 kts 94°
2026-05-08 21:03 26.68689 -80.19225 1526 ft 134 kts 93°
2026-05-08 21:03 26.68646 -80.18213 1347 ft 127 kts 94°
2026-05-08 21:03 26.68602 -80.17259 1205 ft 126 kts 95°
2026-05-08 21:04 26.68557 -80.16274 1020 ft 131 kts 93°
2026-05-08 21:04 26.68515 -80.15252 853 ft 130 kts 93°
2026-05-08 21:04 26.68469 -80.14242 688 ft 128 kts 92°
2026-05-08 21:04 26.68430 -80.13270 527 ft 124 kts 91°
2026-05-08 21:05 26.68383 -80.12304 370 ft 125 kts 90°
2026-05-08 21:05 26.68344 -80.11349 218 ft 120 kts 92°
2026-05-08 21:05 26.68302 -80.10404 48 ft 125 kts 92°
2026-05-08 21:05 26.68264 -80.09491 21 ft 100 kts 92°
2026-05-08 21:06 26.68238 -80.08886 21 ft 56 kts 92°
2026-05-08 21:06 26.68222 -80.08555 21 ft 37 kts 92°
2026-05-08 21:06 26.68211 -80.08325 21 ft 24 kts 92°
2026-05-08 21:06 26.68219 -80.08177 21 ft 13 kts 49°
2026-05-08 21:07 26.68298 -80.08161 21 ft 7 kts 346°
2026-05-08 21:07 26.68317 -80.08209 21 ft 8 kts 272°
2026-05-08 21:07 26.68319 -80.08278 21 ft 9 kts 273°
2026-05-08 21:07 26.68323 -80.08358 21 ft 12 kts 273°
2026-05-08 21:08 26.68328 -80.08466 21 ft 16 kts 273°
2026-05-08 21:08 26.68334 -80.08601 21 ft 19 kts 272°
2026-05-08 21:08 26.68340 -80.08744 21 ft 18 kts 272°
2026-05-08 21:08 26.68346 -80.08880 21 ft 17 kts 273°
2026-05-08 21:09 26.68352 -80.09013 22 ft 17 kts 272°
2026-05-08 21:09 26.68358 -80.09141 21 ft 16 kts 273°
2026-05-08 21:09 26.68363 -80.09264 21 ft 16 kts 273°
2026-05-08 21:09 26.68406 -80.09366 22 ft 14 kts 316°
2026-05-08 21:10 26.68477 -80.09375 22 ft 9 kts 45°
2026-05-08 21:10 26.68522 -80.09347 21 ft 8 kts 334°
2026-05-08 21:10 26.68563 -80.09393 22 ft 8 kts 311°
2026-05-08 21:10 26.68607 -80.09442 22 ft 9 kts 318°
2026-05-08 21:11 26.68641 -80.09476 21 ft 10 kts 317°
2026-05-08 21:11 26.68716 -80.09483 21 ft 10 kts 51°
2026-05-08 21:11 26.68760 -80.09427 22 ft 9 kts 46°
2026-05-08 21:11 26.68790 -80.09392 22 ft 9 kts 47°
2026-05-08 21:12 26.68824 -80.09333 21 ft 8 kts 57°
2026-05-08 21:12 26.68816 -80.09295 21 ft 5 kts 140°
2026-05-08 21:12 26.68791 -80.09270 21 ft 3 kts 138°
2026-05-08 21:12 26.68782 -80.09261 21 ft 1 kts 137°